Вернуться в каталог

YAOGAN 11 DEB

АктивенВоенныеSSO
NORAD 38175·DEBRIS·🇨🇳 China

Запущен Sep 22, 2010 с Jiuquan Satellite Launch Center

Loading…

Ближайшие Пролёты (ближайшие 24 часа)

TLE

СвежийSource: Space-Track

Эпоха: Sep 13, 2026, 04:20 UTC

1 38175U 10047E   26256.18076085  .00001079  00000-0  26541-3 0  9990
2 38175  98.0913 336.7204 0165938 329.9998  29.1765 14.46336769275690

Отслеживайте YAOGAN 11 DEB в реальном времени с AllMySat

Download on the App Store